www.pogodaiklimat.ru

Погода и климат >> Архив погоды >> Гондурас >> Амапала


ПОГОДА в Амапале

  • Прогноз погоды в Амапале
  • Монитор погоды в Амапале

АРХИВ ПОГОДЫ в Амапале

Время (UTC), дата Ветер
(напр.,м/с)
 
Видим.   Явления Облачность Т
(С)
Тd
(С)
f
(%)
Тe
(С)
Тes
(С)
Комфортность P
(гПа)
Po
(гПа)
Тmin
(С)
Tmax
(С)
R
(мм)
R24
(мм)
S
(см)
12 9.01 С 2 20 км ясно +24.8 +20.4 77 +31 +31 очень
душно
1016.3 1015.8 +22.4 +34.5
15 9.01 СВ 5 20 км 1/1 900 м
[Cu hum]
+30.8 +21.0 56 +38 +42 очень
душно
1018.0 1017.5
18 9.01 ЮЗ 2 20 км 1/1 960 м
[Cu hum]
+33.8 +20.1 45 +40 +54 опасность
солнечного
удара
1016.8 1016.3 +22.4 +33.8
21 9.01 ЮЗ 3 20 км 5/1 900 м
[Cu hum Ac trans]
+32.2 +20.7 51 +39 +43 очень
душно
1013.3 1012.8
00 10.01 ЮЗ 4 20 км 9/1 900 м
[Cu hum Ac As]
+29.4 +22.3 66 +38 +38 очень
душно
1014.5 1014.0 +22.4 +34.6
06 10.01 штиль 0 20 км 5/5 900 м
[Cu hum]
+19.2 +17.9 92 +21 +21 комфорт 1017.3 973.4 +18.1 +28.2
12 10.01 штиль 0 20 км 3/3 900 м
[Cu hum]
+18.1 +17.7 98 +18 +18 1017.3 972.8 +18.1 +28.2
15 10.01 СВ 3 20 км 1/1 900 м
[Cu hum]
+29.8 +20.8 59 +37 +43 очень
душно
1017.7 1017.2
18 10.01 ЮЗ 3 20 км 3/1 900 м
[Cu hum Ac trans]
+32.8 +21.7 52 +41 +51 опасность
перегрева
1016.4 1015.9 +23.5 +32.8
21 10.01 ЮЗ 3 20 км 4/1 900 м
[Cu med, cong Ac und]
+34.8 +22.2 48 +44 +47 опасность
перегрева
1013.3 1012.8
00 11.01 ЮЗ 3 20 км 9/0
[Ac As]
+29.0 +24.1 75 +40 +40 очень
душно
1014.5 1014.0 +23.5 +35.5
12 11.01 СВ 2 20 км 1/0
[Ac trans]
+24.6 +22.4 88 +32 +32 очень
душно
1015.7 1015.2 +22.2 +35.5
15 11.01 СВ 3 20 км 1/1 900 м
[Cu hum]
+29.0 +22.0 66 +37 +43 очень
душно
1017.0 1012.1
18 11.01 ЮЗ 2 20 км 1/1 900 м
[Cu hum]
+33.0 +20.6 48 +40 +53 опасность
солнечного
удара
1015.5 1015.0 +22.2 +33.0
21 11.01 ЮЗ 4 10 км 9/1 900 м
[Cu hum Ac As]
+32.6 +21.5 52 +41 +42 опасность
перегрева
1013.3 1012.8
00 12.01 С 3 20 км 9/1 900 м
[Cu hum Ac As]
+28.6 +23.1 72 +38 +38 очень
душно
1013.9 1013.4 +22.2 +34.2
15 12.01 штиль 0 20 км 1/1 750 м
[Cu hum]
+28.8 +20.9 62 +36 +45 очень
душно
1017.8 1017.3
18 12.01 20 км 1/1 900 м
[Cu hum]
+32.0 +22.0 56 1016.5 1016.0 +23.5 +32.0
21 12.01 Ю 4 20 км 1/1 960 м
[Cu hum]
+33.2 +21.9 52 +42 +46 опасность
перегрева
1013.7 1013.2
00 13.01 Ю 3 20 км 3/1 900 м
[Sc diur, vesp Ac trans]
+29.6 +23.0 68 +40 +40 очень
душно
1014.5 1014.0 +23.5 +34.5
15 13.01 СВ 7 20 км 1/1 900 м
[Cu hum]
+29.0 +22.0 66 +37 +39 очень
душно
1018.0 1017.5
18 13.01 СВ 2 20 км 1/1 900 м
[Cu hum]
+32.0 +21.4 54 +40 +54 опасность
солнечного
удара
1016.1 1015.6 +22.5 +32.0
21 13.01 СВ 2 20 км 1/1 960 м
[Cu hum]
+36.0 +20.3 40 +42 +48 опасность
перегрева
1013.5 1013.0
00 14.01 СВ 3 20 км 5/1 900 м
[Cu hum Ac trans]
+31.8 +22.7 59 +42 +42 опасность
перегрева
1013.1 1012.6 +22.5 +36.2
06 14.01 С 3 20 км 6/4 900 м
[Cu hum Ac As]
+20.0 +17.5 86 +23 +23 комфорт 1016.9 973.0 +16.6 +30.2
12 14.01 СВ 2 20 км 1/0
[Ac lent]
+25.8 +20.7 73 +32 +32 очень
душно
1016.9 1016.4 +25.0 +36.2
15 14.01 СВ 7 20 км 1/1 900 м
[Cu hum]
+30.2 +19.6 53 +36 +38 очень
душно
1017.7 1017.2
18 14.01 СВ 7 20 км 3/3 900 м
[Cu hum Ci fib]
+34.8 +20.8 44 +42 +44 опасность
перегрева
1015.3 1014.8 +25.0 +34.8
21 14.01 С 7 20 км 3/1 960 м
[Cu hum Ci fib]
+33.8 +19.6 43 +39 +41 очень
душно
1013.3 1012.8
00 15.01 СВ 7 20 км 4/1 960 м
[Sc diur, vesp Ci]
+32.2 +22.3 56 +41 +41 опасность
перегрева
1013.6 1013.1 +25.0 +35.0
03 15.01 СВ 7 20 км 4/1 960 м
[Sc diur, vesp Ci]
+32.2 +22.3 56 +41 +41 опасность
перегрева
1013.6 1013.1 +25.0 +35.0
12 15.01 С 7 20 км 4/0
[Ci fib]
+18.3 +17 +17 1015.4 1014.9 +25.8 +35.0
15 15.01 С 3 20 км 4/0
[Ci fib]
+28.8 +19.6 58 +35 +41 очень
душно
1016.9 1016.4
18 15.01 СВ 3 20 км 3/1 900 м
[Cu hum Ci fib]
+34.0 +19.9 44 +40 +51 опасность
солнечного
удара
1015.3 1014.8 +25.8 +34.0
21 15.01 СВ 3 20 км 1/1 960 м
[Cu hum]
+25.0 +20.4 76 +31 +36 очень
душно
1012.0 1011.5
00 16.01 СВ 2 20 км 1/1 960 м
[Cu hum]
+31.6 +21.6 55 +40 +40 очень
душно
1012.8 1012.3 +25.8 +35.4

 

Местоположение метеостанции Амапала (Гондурас): широта 13.27 долгота -87.65 высота над уровнем моря 5 м.

В архиве по умолчанию представлена погода в Амапале за последнюю неделю. Архивные данные за месяц целиком и за предыдущие месяцы, начиная с января 2011 года, Вы можете получить, выбрав интересующий диапазон дат из раскрывающегося списка и нажав кнопку "Ввод!".


*Определитесь, кто Вы:
робот инопланетянин человек

Внимание! Время в таблицах - всемирное. Для получения местного времени необходимо прибавить поправку, которая равна -6 ч.

Смотрите также архив погоды в соседних городах и на ближайших метеорологических станциях:

Погода в Чолутеке (Гондурас) (51 км)
Погода в Чинандеге (Никарагуа) (91 км)
Погода в Тегусигальпе (Гондурас) (99 км)
Погода в Ла-Эсперансе (Гондурас) (129 км)
Погода в Хинотеге (Никарагуа) (182 км)
Погода в Манагуа (Никарагуа) (203 км)
Погода в Санта-Роза-де-Копане (Гондурас) (208 км)
Погода в Нуэва Окотепеке (Гондурас) (210 км)
Погода в Йоро (Гондурас) (219 км)
Погода в Ла-Лиме (Гондурас) (244 км)

Пояснения к столбцам:

Ветер - указаны скорость ветра в м/с - средняя за 10 мин, порывы в срок и между сроками (в фигурных скобках) и направление, откуда дует ветер: С - северный, СВ - северо-восточный, В - восточный, ЮВ - юго-восточный, Ю - южный, ЮЗ - юго-западный, З - западный, СЗ - северо-западный.
Видимость - горизонтальная дальность видимости в метрах или километрах. При видимости от 1 до 10 км при отсутствии осадков обычно наблюдается дымка, при ухудшении видимости до 1 км и менее - туман. В сухую погоду видимость может ухудшаться дымом, пылью или мглою.
Явления - указаны атмосферные явления, наблюдавшиеся в срок или в последний час перед сроком; фигурными скобками обозначены явления, наблюдавшиеся между сроками (за 1-3 часа до срока); квадратными скобками обозначены град или гололедные отложения с указанием их диаметра в мм.
Облачность - указаны через наклонную черту общая и нижняя облачность в баллах и высота нижней границы облаков в метрах; квадратными скобками обозначены формы облаков: Ci - перистые, Cs - перисто-слоистые, Cc - перисто-кучевые, Ac - высококучевые, As - высокослоистые, Sc - слоисто-кучевые, Ns - слоисто-дождевые, Cu - кучевые, Cb - кучево-дождевые. Подробнее классификацию облаков см. в Атласе облаков (PDF).
T - Температура воздуха - температура, измеренная на высоте 2 м над землей.
Td - Температура точки росы - температура, при понижении до которой содержащийся в воздухе водяной пар достигнет насыщения.
f - Относительная влажность воздуха - влажноcть воздуха, измеренная на высоте 2 м над землей.
Te - Эффективная температура - температура, которую ощущает одетый по сезону человек в тени. Характеристика душности погоды. При расчете учитывается влияние влажности воздуха и скорости ветра на теплоощущения человека.
Tes - Эффективная температура на солнце - температура, которую ощущает человек, с поправкой на солнечный нагрев. Характеристика знойности погоды. Зависит от высоты солнца над горизонтом, облачности и скорости ветра. Ночью, в пасмурную погоду, а также при ветре 12 м/с и более поправка равна нулю.
P - Атмосферное давление - приведенное к уровню моря атмосферное давление.
Po - Атмосферное давление - измеренное на уровне метеостанции атмосферное давление.
Tmin - Минимальная температура - минимум температуры воздуха на высоте 2 м над землей.
Tmax - Максимальная температура - максимум температуры воздуха на высоте 2 м над землей.
R - Количество осадков - Количество выпавших осадков за период времени, мм. При наведении курсора мыши на число - период времени, за который выпало указанное количество осадков.
R24 - Количество осадков - Количество выпавших осадков за 24 часа, мм.
S - Снежный покров - Высота снежного покрова, см. При наведении курсора мыши на число - состояние снежного покрова и степень покрытия местности в баллах.